| time (UTC) | temp C | wind direction | speed KPH | gust KPH | rain 1hr cm | rain 24hr cm | rain mn cm | humidity % | barometer mb |
| 20260509161552 | 18 | 213 | 9.7 | 20.9 | 0.00 | 0.00 | 0.00 | 55 | 1004.8 |
| 20260509160058 | 18 | 235 | 12.9 | 27.4 | 0.00 | 0.00 | 0.00 | 54 | 1004.7 |
| 20260509154600 | 17 | 206 | 14.5 | 25.7 | 0.00 | 0.00 | 0.00 | 58 | 1004.6 |
| 20260509153052 | 17 | 245 | 12.9 | 25.7 | 0.00 | 0.00 | 0.00 | 60 | 1004.7 |
| 20260509151553 | 17 | 259 | 16.1 | 24.1 | 0.00 | 0.00 | 0.00 | 60 | 1004.6 |
| 20260509150053 | 17 | 225 | 6.4 | 24.1 | 0.00 | 0.00 | 0.00 | 65 | 1004.7 |
| 20260509144609 | 16 | 240 | 16.1 | 25.7 | 0.00 | 0.00 | 0.00 | 65 | 1004.7 |
| 20260509143056 | 16 | 242 | 12.9 | 25.7 | 0.00 | 0.00 | 0.00 | 70 | 1004.6 |
| 20260509141558 | 15 | 242 | 17.7 | 27.4 | 0.00 | 0.00 | 0.00 | 70 | 1004.6 |
| 20260509140112 | 15 | 238 | 12.9 | 27.4 | 0.00 | 0.00 | 0.00 | 72 | 1004.5 |
| 20260509134555 | 14 | 233 | 14.5 | 25.7 | 0.00 | 0.00 | 0.00 | 74 | 1004.2 |
| 20260509133058 | 14 | 234 | 12.9 | 30.6 | 0.00 | 0.00 | 0.00 | 76 | 1004.2 |
| 20260509131558 | 13 | 260 | 16.1 | 24.1 | 0.00 | 0.00 | 0.00 | 78 | 1004.7 |
| 20260509130108 | 13 | 258 | 19.3 | 29.0 | 0.00 | 0.00 | 0.00 | 79 | 1004.9 |
| 20260509124606 | 13 | 244 | 16.1 | 30.6 | 0.00 | 0.00 | 0.00 | 80 | 1004.5 |
| 20260509123100 | 12 | 225 | 16.1 | 29.0 | 0.00 | 0.00 | 0.00 | 80 | 1004.6 |
| 20260509121604 | 12 | 202 | 17.7 | 25.7 | 0.00 | 0.00 | 0.00 | 82 | 1004.6 |
| 20260509120056 | 12 | 219 | 9.7 | 25.7 | 0.00 | 0.00 | 0.00 | 84 | 1004.5 |
| 20260509114553 | 12 | 276 | 8.0 | 20.9 | 0.00 | 0.00 | 0.00 | 84 | 1004.3 |
| 20260509113057 | 12 | 222 | 9.7 | 20.9 | 0.00 | 0.00 | 0.00 | 83 | 1004.0 |
| 20260509111608 | 12 | 260 | 11.3 | 24.1 | 0.00 | 0.00 | 0.00 | 82 | 1003.8 |
| 20260509110056 | 12 | 244 | 8.0 | 22.5 | 0.00 | 0.00 | 0.00 | 82 | 1003.9 |
| 20260509104557 | 12 | 352 | 8.0 | 16.1 | 0.00 | 0.00 | 0.00 | 82 | 1003.6 |
| 20260509103051 | 12 | 206 | 12.9 | 24.1 | 0.00 | 0.00 | 0.00 | 83 | 1003.5 |
| 20260509101553 | 12 | 185 | 8.0 | 20.9 | 0.00 | 0.00 | 0.00 | 84 | 1003.5 |
| 20260509100054 | 11 | 267 | 8.0 | 20.9 | 0.00 | 0.00 | 0.00 | 85 | 1003.6 |
| 20260509094555 | 12 | 196 | 8.0 | 19.3 | 0.00 | 0.00 | 0.00 | 85 | 1004.0 |
| 20260509093052 | 12 | 230 | 8.0 | 16.1 | 0.00 | 0.00 | 0.00 | 85 | 1004.3 |
| 20260509091553 | 12 | 219 | 8.0 | 20.9 | 0.00 | 0.00 | 0.00 | 85 | 1004.3 |
| 20260509090104 | 11 | 202 | 8.0 | 19.3 | 0.00 | 0.00 | 0.00 | 85 | 1004.3 |
| 20260509084556 | 11 | 236 | 9.7 | 19.3 | 0.00 | 0.00 | 0.00 | 84 | 1004.5 |
| 20260509083059 | 12 | 194 | 8.0 | 19.3 | 0.00 | 0.00 | 0.00 | 83 | 1004.4 |
| 20260509081556 | 12 | 229 | 6.4 | 17.7 | 0.00 | 0.00 | 0.00 | 83 | 1004.4 |
| 20260509080100 | 12 | 250 | 8.0 | 19.3 | 0.00 | 0.00 | 0.00 | 82 | 1004.4 |
| 20260509074553 | 12 | 200 | 8.0 | 17.7 | 0.00 | 0.00 | 0.00 | 81 | 1004.5 |
| 20260509073052 | 12 | 211 | 8.0 | 17.7 | 0.00 | 0.00 | 0.00 | 80 | 1004.7 |
| 20260509071555 | 12 | 225 | 8.0 | 19.3 | 0.00 | 0.00 | 0.00 | 80 | 1005.0 |
| 20260509070051 | 12 | 211 | 8.0 | 19.3 | 0.00 | 0.00 | 0.00 | 79 | 1005.3 |
| 20260509064555 | 12 | 223 | 8.0 | 19.3 | 0.00 | 0.00 | 0.00 | 79 | 1005.4 |
| 20260509063102 | 13 | 240 | 8.0 | 17.7 | 0.00 | 0.00 | 0.00 | 78 | 1005.5 |
| 20260509061551 | 13 | 181 | 11.3 | 17.7 | 0.00 | 0.00 | 0.00 | 78 | 1005.6 |
| 20260509060100 | 13 | 225 | 12.9 | 24.1 | 0.00 | 0.00 | 0.00 | 78 | 1005.8 |
| 20260509054554 | 13 | 234 | 14.5 | 27.4 | 0.00 | 0.00 | 0.00 | 77 | 1006.0 |
| 20260509053132 | 13 | 153 | 9.7 | 25.7 | 0.00 | 0.00 | 0.00 | 76 | 1005.9 |
| 20260509051551 | 13 | 211 | 11.3 | 27.4 | 0.00 | 0.00 | 0.00 | 75 | 1005.9 |
| 20260509050052 | 14 | 186 | 8.0 | 25.7 | 0.00 | 0.00 | 0.00 | 74 | 1005.9 |
| 20260509044551 | 14 | 123 | 11.3 | 25.7 | 0.00 | 0.00 | 0.00 | 72 | 1005.9 |
| 20260509043106 | 14 | 28 | 9.7 | 24.1 | 0.00 | 0.00 | 0.00 | 70 | 1006.0 |
| 20260509041601 | 15 | 265 | 9.7 | 24.1 | 0.00 | 0.00 | 0.00 | 68 | 1005.8 |
| 20260509040105 | 15 | 288 | 9.7 | 25.7 | 0.00 | 0.00 | 0.00 | 67 | 1005.9 |
| 20260509034604 | 14 | 61 | 8.0 | 17.7 | 0.00 | 0.00 | 0.00 | 67 | 1006.1 |
| 20260509033054 | 13 | 298 | 6.4 | 14.5 | 0.00 | 0.00 | 0.00 | 66 | 1006.1 |
| 20260509031605 | 13 | 109 | 8.0 | 22.5 | 0.00 | 0.00 | 0.00 | 65 | 1006.2 |
| 20260509030056 | 13 | 154 | 9.7 | 20.9 | 0.00 | 0.00 | 0.00 | 64 | 1006.2 |
| 20260509024553 | 13 | 144 | 12.9 | 22.5 | 0.00 | 0.00 | 0.00 | 62 | 1006.1 |
| 20260509023053 | 13 | 138 | 12.9 | 22.5 | 0.00 | 0.00 | 0.00 | 61 | 1006.3 |
| 20260509021552 | 13 | 137 | 12.9 | 17.7 | 0.00 | 0.00 | 0.00 | 61 | 1006.3 |
| 20260509020054 | 13 | 165 | 9.7 | 17.7 | 0.00 | 0.00 | 0.00 | 61 | 1006.4 |
| 20260509014600 | 14 | 167 | 8.0 | 16.1 | 0.00 | 0.00 | 0.00 | 61 | 1006.3 |
| 20260509013055 | 14 | 141 | 12.9 | 20.9 | 0.00 | 0.00 | 0.00 | 61 | 1006.2 |
| 20260509011552 | 15 | 210 | 16.1 | 24.1 | 0.00 | 0.00 | 0.00 | 60 | 1006.2 |
| 20260509010057 | 15 | 135 | 14.5 | 20.9 | 0.00 | 0.00 | 0.00 | 59 | 1006.1 |
| 20260509004550 | 15 | 141 | 12.9 | 20.9 | 0.00 | 0.00 | 0.00 | 58 | 1006.2 |
| 20260509003051 | 16 | 188 | 4.8 | 19.3 | 0.00 | 0.00 | 0.00 | 57 | 1006.1 |
| 20260509001555 | 16 | 176 | 6.4 | 16.1 | 0.00 | 0.00 | 0.00 | 56 | 1006.3 |
| 20260509000056 | 16 | 259 | 4.8 | 11.3 | 0.00 | 0.00 | 0.00 | 55 | 1006.4 |
| 20260508234555 | 16 | 136 | 6.4 | 16.1 | 0.00 | 0.00 | 0.00 | 56 | 1006.4 |
| 20260508233104 | 16 | 323 | 9.7 | 22.5 | 0.00 | 0.00 | 0.00 | 56 | 1006.5 |
| 20260508231554 | 16 | 269 | 14.5 | 24.1 | 0.00 | 0.00 | 0.00 | 56 | 1006.5 |
| 20260508224554 | 16 | 208 | 4.8 | 22.5 | 0.00 | 0.00 | 0.00 | 57 | 1006.8 |
| 20260508223056 | 16 | 76 | 6.4 | 16.1 | 0.00 | 0.00 | 0.00 | 56 | 1006.8 |
| 20260508221554 | 17 | 148 | 8.0 | 16.1 | 0.00 | 0.00 | 0.00 | 56 | 1006.9 |
| 20260508220058 | 16 | 342 | 8.0 | 17.7 | 0.00 | 0.00 | 0.00 | 58 | 1007.0 |
| 20260508214552 | 16 | 221 | 6.4 | 22.5 | 0.00 | 0.25 | 0.00 | 59 | 1007.1 |
| 20260508213051 | 16 | 159 | 6.4 | 19.3 | 0.00 | 0.25 | 0.00 | 57 | 1007.1 |
| 20260508211553 | 17 | 9 | 8.0 | 24.1 | 0.00 | 0.25 | 0.00 | 54 | 1007.1 |
| 20260508210104 | 17 | 80 | 6.4 | 29.0 | 0.00 | 0.25 | 0.00 | 52 | 1007.1 |
| 20260508204554 | 17 | 135 | 12.9 | 25.7 | 0.00 | 0.25 | 0.00 | 52 | 1007.2 |
| 20260508203059 | 17 | 170 | 8.0 | 27.4 | 0.00 | 0.25 | 0.00 | 46 | 1007.3 |
| 20260508201555 | 17 | 80 | 11.3 | 24.1 | 0.00 | 0.25 | 0.00 | 46 | 1007.4 |
| 20260508200057 | 18 | 72 | 8.0 | 20.9 | 0.00 | 0.25 | 0.00 | 47 | 1007.8 |
| 20260508194552 | 17 | 103 | 6.4 | 20.9 | 0.00 | 0.25 | 0.00 | 49 | 1008.0 |
| 20260508193109 | 17 | 82 | 11.3 | 22.5 | 0.00 | 0.25 | 0.00 | 45 | 1008.2 |
| 20260508191559 | 17 | 227 | 6.4 | 20.9 | 0.00 | 0.25 | 0.00 | 43 | 1008.3 |
| 20260508190052 | 17 | 214 | 8.0 | 25.7 | 0.00 | 0.25 | 0.00 | 40 | 1008.7 |
| 20260508184551 | 19 | 102 | 3.2 | 9.7 | 0.00 | 0.25 | 0.00 | 37 | 1008.9 |
| 20260508183050 | 18 | 154 | 1.6 | 16.1 | 0.00 | 0.25 | 0.00 | 39 | 1008.9 |
| 20260508181552 | 18 | 260 | 6.4 | 17.7 | 0.00 | 0.25 | 0.00 | 39 | 1009.0 |
| 20260508180052 | 18 | 224 | 4.8 | 16.1 | 0.00 | 0.25 | 0.00 | 37 | 1009.2 |
| 20260508174550 | 18 | 288 | 8.0 | 16.1 | 0.00 | 0.25 | 0.00 | 35 | 1009.5 |
| 20260508173051 | 17 | 86 | 8.0 | 24.1 | 0.00 | 0.25 | 0.00 | 36 | 1009.8 |
| 20260508171555 | 18 | 253 | 3.2 | 11.3 | 0.00 | 0.25 | 0.00 | 37 | 1010.0 |
| 20260508170057 | 17 | 299 | 3.2 | 19.3 | 0.00 | 0.25 | 0.00 | 39 | 1010.3 |
| 20260508164552 | 17 | 188 | 4.8 | 17.7 | 0.00 | 0.25 | 0.00 | 39 | 1010.4 |
| 20260508163054 | 17 | 318 | 3.2 | 16.1 | 0.00 | 0.25 | 0.00 | 40 | 1010.8 |